Date String (YYYY-MM-DD hh:mm:ss) UTC,Instrument flags,absolute air pressure of the measurement (hPa),sample flow rate (lpm),inlet stack bypass flow (lpm),air temperature of the measurement (°C),ambient temperature measured by the external sensor (°C),aerosol sample conditioner tube jacket temperature (°C),OPC LED temperature (°C),internal box temperature (°C),relative humidity of the measurement (%),span deviation,mass concentration of particles derived from Lorenz-Mie calculation of OPC scattering (μg/m³),mass concentration of particles derived from Lorenz-Mie calculation of OPC scattering (μg/m³),mass concentration of particles derived from Lorenz-Mie calculation of OPC scattering (μg/m³)
DateTimeUTC,F1_M11,P_M11,Q1_M11,Q2_M11,T1_M11,T2_M11,T3_M11,T4_M11,T5_M11,U1_M11,ZSPAN_M11,X0_M11,X2_M11,X1_M11
2023-12-12 14:00:00,SystemResetWarning,0833.4,5.00,000.00,021.0,020.1,000.0,029.4,022.3,21.6,0000.0,0004.25,0003.08,0002.80
2023-12-12 14:01:00,SystemResetWarning,0833.4,5.00,000.00,021.0,020.1,000.0,029.3,022.3,21.6,0000.0,0004.59,0003.06,0002.80
2023-12-12 14:02:00,SystemResetWarning,0833.4,5.00,000.00,021.0,020.1,000.0,029.3,022.3,21.6,0000.0,0006.14,0003.06,0002.81
2023-12-12 14:03:00,SystemResetWarning,0833.4,5.00,000.00,021.0,020.1,000.0,029.4,022.3,21.6,0000.0,0006.45,0003.09,0002.81
2023-12-12 14:04:00,SystemResetWarning,0833.4,5.00,000.00,021.0,020.1,000.0,029.3,022.3,21.6,0000.0,0006.43,0003.11,0002.84
2023-12-12 14:05:00,SystemResetWarning,0833.4,5.00,000.00,021.0,020.1,000.0,029.4,022.4,21.6,0000.0,0006.40,0003.12,0002.86
2023-12-12 14:06:00,SystemResetWarning,0833.4,5.00,000.00,021.0,020.1,000.0,029.4,022.4,21.6,0000.0,0006.58,0003.14,0002.87
2023-12-12 14:07:00,SystemResetWarning,0833.3,5.00,000.00,021.0,020.1,000.0,029.4,022.4,21.6,0000.0,0006.56,0003.14,0002.89
2023-12-12 14:08:00,SystemResetWarning,0833.3,5.00,000.00,021.0,020.1,000.0,029.4,022.4,21.6,0000.0,0006.46,0003.15,0002.90
2023-12-12 14:09:00,SystemResetWarning,0833.3,5.00,000.00,021.0,020.1,000.0,029.4,022.4,21.6,0000.0,0006.46,0003.15,0002.92
2023-12-12 14:10:00,SystemResetWarning,0833.3,5.00,000.00,021.0,020.1,000.0,029.4,022.4,21.6,0000.0,0007.05,0003.16,0002.95
2023-12-12 14:11:00,SystemResetWarning,0833.4,5.00,000.00,021.0,020.1,000.0,029.4,022.3,21.6,0000.0,0007.31,0003.16,0002.98
2023-12-12 14:12:00,SystemResetWarning,0833.3,5.01,000.00,021.0,020.1,000.0,029.4,022.3,21.6,0000.0,0006.90,0003.17,0002.99
2023-12-12 14:13:00,SystemResetWarning,0833.4,5.01,000.00,021.1,020.1,000.0,029.4,022.3,21.6,0000.0,0005.68,0003.20,0003.01
2023-12-12 14:14:00,SystemResetWarning,0833.4,5.01,000.00,021.0,020.1,000.0,029.3,022.3,21.6,0000.0,0004.99,0003.20,0003.03
2023-12-12 14:15:00,SystemResetWarning,0833.3,4.99,000.00,021.0,020.1,000.0,029.3,022.3,21.5,0000.0,0005.06,0003.21,0003.03
2023-12-12 14:16:00,SystemResetWarning,0833.4,4.99,000.00,021.1,020.1,000.0,029.4,022.4,21.5,0000.0,0005.31,0003.22,0003.04
2023-12-12 14:17:00,SystemResetWarning,0833.3,4.99,000.00,021.1,020.1,000.0,029.4,022.4,21.5,0000.0,0005.35,0003.23,0003.04
2023-12-12 14:18:00,SystemResetWarning,0833.3,5.00,000.00,021.1,020.1,000.0,029.4,022.4,21.5,0000.0,0005.26,0003.22,0003.04
2023-12-12 14:19:00,SystemResetWarning,0833.3,5.00,000.00,021.1,020.1,000.0,029.4,022.4,21.5,0000.0,0005.29,0003.23,0003.03
2023-12-12 14:20:00,SystemResetWarning,0833.3,5.01,000.00,021.1,020.1,000.0,029.4,022.4,21.5,0000.0,0005.30,0003.23,0003.05
2023-12-12 14:21:00,SystemResetWarning,0833.3,5.01,000.00,021.1,020.1,000.0,029.4,022.4,21.5,0000.0,0005.24,0003.24,0003.04
2023-12-12 14:22:00,SystemResetWarning,0833.2,5.00,000.00,021.1,020.1,000.0,029.4,022.4,21.4,0000.0,0004.79,0003.26,0003.02
2023-12-12 14:23:00,SystemResetWarning,0833.4,4.99,000.00,021.1,020.1,000.0,029.4,022.4,21.4,0000.0,0004.82,0003.26,0003.02
2023-12-12 14:24:00,SystemResetWarning,0833.3,4.99,000.00,021.1,020.1,000.0,029.4,022.4,21.4,0000.0,0004.92,0003.28,0003.04
2023-12-12 14:25:00,SystemResetWarning,0833.2,5.00,000.00,021.1,020.1,000.0,029.4,022.4,21.4,0000.0,0004.89,0003.28,0003.04
2023-12-12 14:26:00,SystemResetWarning,0833.3,5.00,000.00,021.1,020.1,000.0,029.4,022.4,21.4,0000.0,0005.23,0003.28,0003.05
2023-12-12 14:27:00,SystemResetWarning,0833.3,5.00,000.00,021.1,020.1,000.0,029.4,022.3,21.4,0000.0,0005.80,0003.28,0003.07
2023-12-12 14:28:00,SystemResetWarning,0833.2,5.00,000.00,021.0,020.1,000.0,029.4,022.3,21.4,0000.0,0005.53,0003.27,0003.09
2023-12-12 14:29:00,SystemResetWarning,0833.3,5.00,000.00,021.0,020.1,000.0,029.4,022.4,21.4,0000.0,0005.54,0003.28,0003.11
2023-12-12 14:30:00,SystemResetWarning,0833.2,5.00,000.00,021.1,020.1,000.0,029.4,022.4,21.4,0000.0,0005.64,0003.30,0003.12
2023-12-12 14:31:00,SystemResetWarning,0833.3,5.00,000.00,021.1,020.1,000.0,029.4,022.3,21.4,0000.0,0005.70,0003.32,0003.14
2023-12-12 14:32:00,SystemResetWarning,0833.2,5.00,000.00,021.1,020.1,000.0,029.4,022.3,21.4,0000.0,0005.61,0003.34,0003.17
2023-12-12 14:33:00,SystemResetWarning,0833.2,5.00,000.00,021.1,020.1,000.0,029.4,022.4,21.3,0000.0,0005.49,0003.35,0003.20
2023-12-12 14:34:00,SystemResetWarning,0833.2,5.00,000.00,021.0,020.1,000.0,029.4,022.3,21.3,0000.0,0005.62,0003.39,0003.24
2023-12-12 14:35:00,SystemResetWarning,0833.3,5.00,000.00,021.0,020.1,000.0,029.4,022.3,21.3,0000.0,0005.66,0003.42,0003.28
2023-12-12 14:36:00,SystemResetWarning,0833.3,4.99,000.00,021.0,020.1,000.0,029.4,022.3,21.3,0000.0,0006.49,0003.44,0003.32
2023-12-12 14:37:00,SystemResetWarning,0833.2,4.99,000.00,021.0,020.1,000.0,029.3,022.3,21.3,0000.0,0006.64,0003.47,0003.35
2023-12-12 14:38:00,SystemResetWarning,0833.3,4.99,000.00,021.0,020.1,000.0,029.3,022.4,21.3,0000.0,0005.99,0003.52,0003.39
2023-12-12 14:39:00,SystemResetWarning,0833.3,5.00,000.00,021.0,020.1,000.0,029.3,022.3,21.3,0000.0,0006.13,0003.56,0003.42
2023-12-12 14:40:00,SystemResetWarning,0833.3,5.00,000.00,021.0,020.1,000.0,029.3,022.4,21.3,0000.0,0006.21,0003.60,0003.44
2023-12-12 14:41:00,SystemResetWarning,0833.3,5.00,000.00,021.0,020.1,000.0,029.3,022.3,21.3,0000.0,0006.22,0003.63,0003.49
2023-12-12 14:42:00,SystemResetWarning,0833.3,5.00,000.00,021.0,020.1,000.0,029.3,022.3,21.3,0000.0,0006.22,0003.65,0003.52
2023-12-12 14:43:00,SystemResetWarning,0833.4,5.01,000.00,021.0,020.1,000.0,029.3,022.3,21.3,0000.0,0006.29,0003.68,0003.55
2023-12-12 14:44:00,SystemResetWarning,0833.3,5.00,000.00,021.0,020.1,000.0,029.3,022.3,21.3,0000.0,0006.32,0003.70,0003.57
2023-12-12 14:45:00,SystemResetWarning,0833.4,4.99,000.00,021.0,020.1,000.0,029.3,022.3,21.2,0000.0,0006.27,0003.70,0003.57
2023-12-12 14:46:00,SystemResetWarning,0833.4,4.99,000.00,021.0,020.1,000.0,029.3,022.3,21.3,0000.0,0006.35,0003.73,0003.58
2023-12-12 14:47:00,SystemResetWarning,0833.3,5.00,000.00,021.0,020.1,000.0,029.3,022.3,21.2,0000.0,0005.63,0003.75,0003.58
2023-12-12 14:48:00,SystemResetWarning,0833.3,5.00,000.00,021.0,020.1,000.0,029.3,022.3,21.2,0000.0,0005.27,0003.80,0003.61
2023-12-12 14:49:00,SystemResetWarning,0833.4,5.00,000.00,021.0,020.1,000.0,029.3,022.3,21.2,0000.0,0005.27,0003.80,0003.61
2023-12-12 14:50:00,SystemResetWarning,0833.4,5.00,000.00,021.0,020.0,000.0,029.3,022.3,21.2,0000.0,0005.28,0003.81,0003.62
2023-12-12 14:51:00,SystemResetWarning,0833.4,5.00,000.00,021.0,020.0,000.0,029.3,022.3,21.2,0000.0,0005.30,0003.83,0003.64
2023-12-12 14:52:00,SystemResetWarning,0833.4,5.00,000.00,021.0,020.0,000.0,029.3,022.2,21.2,0000.0,0005.41,0003.84,0003.64
2023-12-12 14:53:00,SystemResetWarning,0833.4,5.00,000.00,020.9,020.0,000.0,029.3,022.2,21.2,0000.0,0005.49,0003.86,0003.64
2023-12-12 14:54:00,SystemResetWarning,0833.4,5.00,000.00,020.9,020.0,000.0,029.3,022.2,21.1,0000.0,0005.51,0003.88,0003.67
2023-12-12 14:55:00,SystemResetWarning,0833.4,4.99,000.00,020.9,020.0,000.0,029.3,022.2,21.1,0000.0,0005.58,0003.91,0003.70
2023-12-12 14:56:00,SystemResetWarning,0833.4,5.00,000.00,020.9,020.0,000.0,029.3,022.2,21.1,0000.0,0005.66,0003.94,0003.72
2023-12-12 14:57:00,SystemResetWarning,0833.4,4.99,000.00,020.9,020.0,000.0,029.3,022.2,21.1,0000.0,0005.63,0003.96,0003.75
2023-12-12 14:58:00,SystemResetWarning,0833.4,4.99,000.00,020.9,020.0,000.0,029.3,022.2,21.0,0000.0,0005.70,0003.97,0003.78
2023-12-12 14:59:00,SystemResetWarning,0833.4,5.00,000.00,020.9,020.0,000.0,029.3,022.2,21.0,0000.0,0005.69,0003.98,0003.79
